COSMOS 1823 DEB, 18753

Orbit data source: Space-Track

COSMOS 1823 DEB, 18753 is space debris in LEO originally from a launch on Fri, 20 Feb 1987 UTC launched from the Plesetsk Missile And Space Complex (PKMTR). Debris objects in space refer to the collection of defunct objects orbiting the Earth. Examples of debris include non-operational satellites, rocket bodies, and fragments generated from explosions, collisions, or faulty payload assembly.

Loading next visibility...
Identifier
18753, 1987-020AE
Orbit
LEO
Country
Flag of CISCIS
Related business
Manufacturer
Unknown
Mission
Spacecraft
Bus & Motor
Unknown
Mass
Unknown
Launch date (UTC)
1987-02-20 (39 years ago)
Launch vehicle
Unknown
Launch site
Plesetsk Missile And Space Complex (PKMTR)
Object type
Payload
Rocket body
Debris
Shape & HBR
Unknown shape, 0.2 m
Radar Cross Section
Medium (>0.1 m² and <1 m²)

Expand to show TLE details & history
Last TLE update: 2 days ago

TLE from 2 days ago
0 COSMOS 1823 DEB
1 18753U 87020AE  26171.27563639  .00000144  00000-0  11255-2 0  9994
2 18753  73.4455 113.2741 0024223  28.9762 122.5233 12.45839210749339
Epoch: 2026-06-20T06:36Z
TLE epoch observation values (Epoch: 2026-06-20T06:36:54.984Z)
Latitude
27.03844°
Longitude
-83.13044°
Altitude
1,494.997 km
Speed
7.114 km/s
True Right ascension
18h 58m 21s
True Declination
26° 54' 45"
Sunlit
Object was in full shadow at epoch
Visualization orbit readout
Latitude
Unknown
Longitude
Unknown
Altitude
Unknown
Speed
Unknown
Apparent Right ascension
Unknown
Apparent Declination
Unknown
Sunlit
N/A
Visualization observer readout
Local Sidereal Time
00:39:46
Azimuth
Unknown
Elevation
Unknown
Doppler factor
Unknown
Orbital elements
Apogee altitude
1,498.867 km
Perigee altitude
1,460.798 km
Semi-major axis
7,857.97 km
Eccentricity
0.00242
Inclination
73.4455°
RAAN
113.2741°
Arg. of periapsis
28.9762°
True anomaly
122.75696°
Mean anomaly
122.5233°
Eccentric anomaly
122.64017°
Mean motion
3.11586 °/min
Orbital period
115.54 mins
BSTAR
0.0011255
Loading maneuver chart data...
Computing Atmospheric mass density...

Documentation

Showing up to 5 results
|